Stations météo

Publicité
Lulea/Kallax, Suède (2186): Température de l'air & dewpoint: 04.04.2020 21:00:00 - 10.04.2020 21:00:00 (CEST)Lulea/Kallax, Suède (2186): Vitesse du vent & gusts: 04.04.2020 21:00:00 - 10.04.2020 21:00:00 (CEST)Lulea/Kallax, Suède (2186): Direction du vent: 04.04.2020 21:00:00 - 10.04.2020 21:00:00 (CEST)Lulea/Kallax, Suède (2186): reduced air pressure: 04.04.2020 21:00:00 - 10.04.2020 21:00:00 (CEST)Lulea/Kallax, Suède (2186): visibility: 04.04.2020 21:00:00 - 10.04.2020 21:00:00 (CEST)Lulea/Kallax, Suède (2186): Quantités de précipitations: 04.04.2020 21:00:00 - 10.04.2020 21:00:00 (CEST)
Date & Time tt [°C] td [°C] ff [km/h] ff [knt] fx [km/h] fx [knt] dd ppp [hPa] vv [km] rr [mm]
10.04.2020 21:00:00 -0,4 -2,8 11 6 32 18 W 1013,3 10 0,0
10.04.2020 20:00:00 2,1 -4,4 15 8 32 18 WNW 1013,1 10 0,0
10.04.2020 19:00:00 2,1 -4,6 15 8 40 21 W 1012,9 10 0,0
10.04.2020 18:00:00 3,8 -7,3 15 8 32 18 WNW 1012,6 10 0,0
10.04.2020 17:00:00 4,0 -7,8 18 10 40 21 WNW 1012,7 10 0,0
10.04.2020 16:00:00 3,8 -7,6 22 12 40 21 WNW 1013,0 10 0,0
10.04.2020 15:00:00 3,4 -8,6 21 11 36 19 NW 1013,3 10 0,0
10.04.2020 14:00:00 3,1 -9,9 22 12 36 19 NW 1013,5 10 0,0
10.04.2020 13:00:00 2,7 -9,9 18 10 32 18 WNW 1013,9 10 0,0
10.04.2020 12:00:00 2,0 -8,7 22 12 29 16 WNW 1014,1 10 0,0
10.04.2020 11:00:00 1,3 -7,7 16 9 25 14 NNW 1014,2 10 0,0
10.04.2020 10:00:00 0,5 -7,3 15 8 32 18 NW 1013,9 10 0,0
10.04.2020 09:00:00 -0,6 -7,0 24 13 32 18 NW 1013,9 10 0,0
10.04.2020 08:00:00 -1,1 -7,5 16 9 25 14 WNW 1013,7 10 0,0
10.04.2020 07:00:00 -2,4 -8,1 8 4 14 8 WNW 1013,6 10 0,0
10.04.2020 06:00:00 -3,2 -8,3 13 7 18 10 W 1013,5 10 0,0
10.04.2020 05:00:00 -3,0 -8,5 13 7 18 10 W 1013,7 10 0,0
10.04.2020 04:00:00 -3,2 -8,6 4 2 14 8 - 1013,8 10 0,0
10.04.2020 03:00:00 -2,5 -8,6 8 4 14 8 W 1014,1 10 0,0
10.04.2020 02:00:00 -2,6 -8,5 5 3 11 6 W 1014,3 10 0,0
10.04.2020 01:00:00 -2,3 -7,6 9 5 14 8 NNW 1014,3 10 0,0
10.04.2020 00:00:00 -0,4 -7,4 5 3 11 6 NW 1014,1 10 0,0
09.04.2020 23:00:00 -0,7 -6,5 5 3 7 4 NNW 1013,9 10 0,0
09.04.2020 22:00:00 0,3 -7,2 5 3 7 4 NW 1013,6 10 0,0
09.04.2020 21:00:00 1,3 -8,5 4 2 11 6 - 1013,0 10 0,0
09.04.2020 20:00:00 1,3 -7,2 4 2 7 4 N 1012,2 10 0,0
09.04.2020 19:00:00 2,7 -8,6 4 2 18 10 - 1011,6 10 0,0
09.04.2020 18:00:00 3,3 -9,1 11 6 25 14 N 1010,7 10 0,0
09.04.2020 17:00:00 3,8 -8,6 16 9 25 14 N 1009,9 10 0,0
09.04.2020 16:00:00 4,2 -7,6 28 15 36 19 NNW 1009,4 10 0,0
09.04.2020 15:00:00 4,3 -6,3 21 11 36 19 N 1008,5 10 0,0
09.04.2020 14:00:00 3,9 -5,8 21 11 36 19 N 1007,8 10 0,0
09.04.2020 13:00:00 4,5 -6,4 15 8 40 21 N 1006,7 10 0,0
09.04.2020 12:00:00 4,6 -6,0 29 16 47 25 N 1005,6 10 0,0
09.04.2020 11:00:00 4,7 -4,6 24 13 40 21 N 1004,3 10 0,0
09.04.2020 10:00:00 4,3 -3,9 26 14 43 23 N 1002,9 10 0,0
09.04.2020 09:00:00 3,6 -3,7 31 17 43 23 NNW 1001,7 10 0,0
09.04.2020 08:00:00 1,8 -4,1 31 17 40 21 NW 1000,0 10 0,0
09.04.2020 07:00:00 1,4 -4,9 29 16 40 21 NW 998,9 10 0,0
09.04.2020 06:00:00 0,9 -4,7 26 14 36 19 NW 998,0 10 0,0
09.04.2020 05:00:00 0,9 -4,3 13 7 29 16 WNW 997,4 10 0,0
09.04.2020 04:00:00 1,0 -4,4 13 7 22 12 W 997,1 10 0,0
09.04.2020 03:00:00 1,1 -5,2 8 4 18 10 W 997,5 10 0,0
09.04.2020 02:00:00 1,8 -5,6 13 7 25 14 W 997,9 10 0,0
09.04.2020 01:00:00 1,8 -5,4 11 6 18 10 NW 998,5 10 0,0
09.04.2020 00:00:00 1,7 -3,8 9 5 14 8 WSW 999,3 10 0,0
08.04.2020 23:00:00 1,4 -2,4 9 5 14 8 SSW 999,9 10 0,0
08.04.2020 22:00:00 3,7 -2,1 9 5 14 8 W 1000,4 10 0,0
08.04.2020 21:00:00 4,6 -1,4 5 3 22 12 WSW 1000,6 10 0,0
08.04.2020 20:00:00 5,5 -0,8 16 9 29 16 W 1001,0 10 0,0
08.04.2020 19:00:00 6,9 -1,0 22 12 36 19 W 1001,2 10 0,0
08.04.2020 18:00:00 8,1 -1,4 28 15 47 25 W 1001,3 10 0,0
08.04.2020 17:00:00 10,1 -2,9 16 9 40 21 W 1001,0 10 0,0
08.04.2020 16:00:00 8,8 -1,9 21 11 32 18 S 1001,7 10 0,0
08.04.2020 15:00:00 7,8 -2,0 24 13 36 19 SSW 1002,1 10 0,0
08.04.2020 14:00:00 6,2 -1,7 21 11 29 16 SSW 1002,7 10 0,0
08.04.2020 13:00:00 5,1 -1,0 16 9 25 14 S 1003,8 10 0,0
08.04.2020 12:00:00 4,2 -1,0 16 9 32 18 S 1005,1 10 0,0
08.04.2020 11:00:00 2,8 -1,3 18 10 32 18 S 1006,7 10 0,0
08.04.2020 10:00:00 3,4 -1,6 18 10 29 16 S 1008,3 10 0,0
08.04.2020 09:00:00 3,1 -1,3 15 8 25 14 S 1009,8 10 0,0
08.04.2020 08:00:00 4,3 -1,8 15 8 25 14 SSW 1011,0 10 0,0
08.04.2020 07:00:00 4,7 -1,5 16 9 25 14 SW 1012,0 10 0,0
08.04.2020 06:00:00 4,3 -1,3 11 6 29 16 SW 1012,9 10 0,0
08.04.2020 05:00:00 4,9 -1,1 18 10 40 21 SW 1013,2 10 0,0
08.04.2020 04:00:00 4,9 -0,9 15 8 25 14 SW 1013,4 10 0,0
08.04.2020 03:00:00 4,9 -1,1 15 8 22 12 WSW 1013,9 10 0,0
08.04.2020 02:00:00 4,6 -1,6 13 7 22 12 WSW 1014,3 10 0,0
08.04.2020 01:00:00 3,8 -2,8 9 5 22 12 WSW 1014,9 10 0,0
08.04.2020 00:00:00 2,1 -3,0 5 3 11 6 SSE 1015,2 10 0,0
07.04.2020 23:00:00 3,7 -3,1 5 3 29 16 WSW 1015,4 10 0,0
07.04.2020 22:00:00 5,2 -2,4 16 9 25 14 WNW 1015,3 10 0,0
07.04.2020 21:00:00 5,9 -1,7 16 9 25 14 W 1015,1 10 0,0
07.04.2020 20:00:00 7,1 -1,8 15 8 29 16 WNW 1014,5 10 0,0
07.04.2020 19:00:00 8,5 -2,2 21 11 40 21 WNW 1013,5 10 0,0
07.04.2020 18:00:00 7,2 -0,8 21 11 40 21 NW 1012,4 10 0,0
07.04.2020 17:00:00 9,7 -0,2 24 13 32 18 WNW 1011,5 10 0,0
07.04.2020 16:00:00 6,0 0,7 5 3 14 8 SSE 1011,0 10 0,0
07.04.2020 15:00:00 3,1 0,2 8 4 14 8 ESE 1010,5 10 0,0
07.04.2020 14:00:00 2,8 0,4 5 3 11 6 ESE 1010,3 10 0,0
07.04.2020 13:00:00 2,8 0,2 4 2 14 8 - 1010,0 10 0,0
07.04.2020 12:00:00 1,3 -0,5 11 6 18 10 NW 1009,8 10 0,0
07.04.2020 11:00:00 0,5 -0,6 13 7 18 10 NW 1009,6 10 0,0
07.04.2020 10:00:00 -0,6 -0,9 15 8 22 12 WNW 1009,5 10 0,0
07.04.2020 09:00:00 -1,1 -1,4 15 8 22 12 NW 1009,5 3,0 0,0
07.04.2020 08:00:00 -0,8 -1,1 13 7 22 12 NW 1009,4 0,7 0,0
07.04.2020 07:00:00 -0,6 -0,9 5 3 11 6 W 1009,7 0,4 0,0
07.04.2020 06:00:00 -0,5 -0,8 5 3 7 4 WSW 1010,1 0,3 0,0
07.04.2020 05:00:00 -0,4 -0,7 8 4 11 6 WSW 1010,7 0,2 0,0
07.04.2020 04:00:00 -0,4 -0,8 5 3 11 6 SSW 1011,5 8 0,0
07.04.2020 03:00:00 -1,4 -1,8 5 3 11 6 SE 1012,1 9 0,0
07.04.2020 02:00:00 -0,7 -1,3 4 2 18 10 - 1013,4 10 0,0
07.04.2020 01:00:00 0,3 -0,4 11 6 22 12 S 1014,2 10 0,0
07.04.2020 00:00:00 1,0 0,1 13 7 22 12 S 1015,3 10 0,0
06.04.2020 23:00:00 1,3 0,1 15 8 32 18 S 1016,3 10 0,0
06.04.2020 22:00:00 1,9 -0,7 24 13 32 18 S 1016,8 10 0,0
06.04.2020 21:00:00 1,3 -1,3 26 14 32 18 SSE 1017,6 10 0,0
06.04.2020 20:00:00 1,0 -1,1 18 10 29 16 SSE 1019,0 10 0,0
06.04.2020 19:00:00 0,8 -1,0 18 10 25 14 SE 1019,9 10 0,0
06.04.2020 18:00:00 0,9 -1,2 18 10 25 14 SSE 1021,1 10 0,0
06.04.2020 17:00:00 1,3 -1,3 18 10 25 14 SSE 1021,7 10 0,0
06.04.2020 16:00:00 1,2 -1,3 21 11 29 16 SSE 1022,7 10 0,0
06.04.2020 15:00:00 0,7 -1,7 21 11 29 16 SSE 1023,5 10 0,0
06.04.2020 14:00:00 0,4 -2,5 21 11 25 14 SSE 1024,1 10 0,0
06.04.2020 13:00:00 0,1 -2,9 21 11 25 14 SSE 1024,6 10 0,0
06.04.2020 12:00:00 0,3 -3,1 18 10 25 14 SSE 1024,7 10 0,0
06.04.2020 11:00:00 0,3 -3,4 16 9 25 14 SSE 1024,8 10 0,0
06.04.2020 10:00:00 0,4 -4,4 16 9 25 14 SSE 1024,9 10 0,0
06.04.2020 09:00:00 0,1 -3,5 16 9 22 12 SSE 1025,0 10 0,0
06.04.2020 08:00:00 -0,1 -1,8 16 9 22 12 SSE 1025,2 10 0,0
06.04.2020 07:00:00 -0,6 -1,6 13 7 22 12 SSE 1025,5 10 0,0
06.04.2020 06:00:00 -1,3 -2,9 13 7 22 12 S 1025,3 10 0,0
06.04.2020 05:00:00 -2,7 -3,4 11 6 14 8 SSE 1025,3 10 0,0
06.04.2020 04:00:00 -4,0 -5,7 5 3 7 4 SE 1025,6 10 0,0
06.04.2020 03:00:00 -4,1 -5,9 5 3 7 4 SSE 1025,4 10 0,0
06.04.2020 02:00:00 -5,2 -8,4 0 0 4 2 N 1025,6 10 0,0
06.04.2020 01:00:00 -5,0 -8,4 0 0 4 2 N 1026,0 10 0,0
06.04.2020 00:00:00 -4,2 -9,2 2 1 4 2 S 1025,7 10 0,0
05.04.2020 23:00:00 -4,9 -8,6 4 2 7 4 SE 1025,4 10 0,0
05.04.2020 22:00:00 -4,9 -10,3 0 0 7 4 N 1025,8 10 0,0
05.04.2020 21:00:00 -4,2 -10,8 2 1 4 2 ESE 1025,9 10 0,0
05.04.2020 20:00:00 -2,8 -10,6 0 0 11 6 N 1025,6 10 0,0
05.04.2020 19:00:00 0,7 -13,7 8 4 18 10 W 1025,3 10 0,0
05.04.2020 18:00:00 0,9 -13,2 18 10 25 14 NW 1025,3 10 0,0
05.04.2020 17:00:00 1,3 -14,0 18 10 32 18 WNW 1025,1 10 0,0
05.04.2020 16:00:00 1,5 -14,6 22 12 36 19 WNW 1024,9 10 0,0
05.04.2020 15:00:00 1,1 -14,6 26 14 36 19 NW 1024,8 10 0,0
05.04.2020 14:00:00 0,7 -12,3 26 14 36 19 NW 1024,5 10 0,0
05.04.2020 13:00:00 0,5 -13,2 21 11 36 19 NW 1024,2 10 0,0
05.04.2020 12:00:00 -0,3 -13,2 28 15 36 19 NW 1023,7 10 0,0
05.04.2020 11:00:00 -1,2 -12,2 22 12 36 19 NW 1023,0 10 0,0
05.04.2020 10:00:00 -1,9 -12,0 15 8 29 16 WNW 1022,5 10 0,0
05.04.2020 09:00:00 -3,4 -12,6 15 8 22 12 WNW 1022,1 10 0,0
05.04.2020 08:00:00 -5,0 -12,6 15 8 22 12 WNW 1021,2 10 0,0
05.04.2020 07:00:00 -6,4 -12,5 13 7 18 10 NW 1020,5 10 0,0
05.04.2020 06:00:00 -6,8 -12,5 11 6 22 12 NW 1019,7 10 0,0
05.04.2020 05:00:00 -7,6 -12,5 16 9 25 14 NW 1018,7 10 0,0
05.04.2020 04:00:00 -5,7 -11,8 18 10 25 14 WNW 1017,6 10 0,0
05.04.2020 03:00:00 -4,9 -11,9 18 10 29 16 WNW 1016,7 10 0,0
05.04.2020 02:00:00 -4,1 -10,9 24 13 32 18 NW 1015,3 10 0,0
05.04.2020 01:00:00 -3,6 -10,7 24 13 29 16 WNW 1014,5 10 0,0
05.04.2020 00:00:00 -3,2 -11,0 16 9 25 14 WNW 1013,2 10 0,0
04.04.2020 23:00:00 -2,5 -11,5 16 9 22 12 W 1011,9 10 0,0
04.04.2020 22:00:00 -1,7 -11,8 16 9 29 16 W 1011,1 10 0,0
04.04.2020 21:00:00 -1,0 -12,6 18 10 29 16 WNW 1010,2 10 0,0

tt = Température de l'air
td = dewpoint
ff = Vitesse du vent
fx = gusts
dd = Direction du vent
ppp = reduced air pressure
vv = visibility
rr = Quantités de précipitations

stations d'obs. à proximité